Location: ?????
(42.2640°N, 43.4211°E)
Time: 15:14:21
(UTC+00:00)

SL-08 R/B - Pass Details

Date: 07 August 2020
Orbit: 947 x 992 km, 83.0° (Epoch: 19 September)

Event Time Altitude Azimuth Distance (km) Brightness Sun altitude
Rises 01:08:44 0° 350° (N) 3,649 7.8 -10.1°
Reaches altitude 10° 01:11:14 10° 349° (N) 2,705 7.1 -9.7°
Maximum altitude 01:17:24 75° 266° (W) 1,004 4.5 -8.7°
Drops below altitude 10° 01:23:37 10° 181° (S) 2,718 6.5 -7.7°
Sets 01:26:07 0° 180° (S) 3,668 7.2 -7.3°
